Saipan, MP

5:31 PM ChST on January 20, 2018 (GMT +1000)
Saipan International

Weather History for PGSN - July, 2013

Change the Weather History Date:

Monday, July 1, 2013

  Actual Average Record
Temperature  
Mean Temperature 80 °F -  
Max Temperature 84 °F 85 °F 91 °F (2016)
Min Temperature 75 °F 76 °F 73 °F (1999)
Cooling Degree Days 14    
Growing Degree Days 30 (Base 50)    
Moisture  
Dew Point 75 °F    
Average Humidity 87    
Maximum Humidity 96    
Minimum Humidity 74    
Precipitation  
Precipitation 0.25 in - - ()
Sea Level Pressure  
Sea Level Pressure 29.91 in    
Wind  
Wind Speed 8 mph (ESE)    
Max Wind Speed 16 mph    
Max Gust Speed 21 mph    
Visibility 10 miles    
Events Rain    
Averages and records for this station are not official NWS values.
T = Trace of Precipitation, MM = Missing Value Source: NWS Daily Summary

Daily Weather History Graph

Daily Weather History Graph

Search for Another Location

Airport or City:

Trip Planner

Search our weather history database for the weather conditions in past years. The results will help you decide how hot, cold, wet, or windy it might be!

Date:

Astronomy

Jul. 01, 2013 Rise Set
Actual Time 5:50 AM ChST 6:51 PM ChST
Civil Twilight 5:26 AM ChST 7:14 PM ChST
Nautical Twilight 4:59 AM ChST 7:42 PM ChST
Astronomical Twilight 4:30 AM ChST 8:11 PM ChST
Moon 12:19 AM ChST (7/1) 1:01 PM ChST (7/1)
Length of Visible Light 13h 47m
Length of Day
13h 00m
Last Quarter, 41% of the Moon is Illuminated
Jul 1
Last Quarter
Jul 8
New
Jul 16
First Quarter
Jul 23
Full
Jul 30
Last Quarter

Hourly Weather History & Observations

Time (ChST) Temp. Heat Index Dew Point Humidity Pressure Visibility Wind Dir Wind Speed Gust Speed Precip Events Conditions
12:54 AM 77.0 °F - 75.0 °F 94% 29.94 in 10.0 mi East 8.1 mph - 0.01 in   Partly Cloudy
1:54 AM 77.0 °F - 75.9 °F 96% 29.92 in 10.0 mi East 8.1 mph - 0.02 in   Partly Cloudy
2:17 AM 75.2 °F - 73.4 °F 94% 29.85 in 10.0 mi SSE 10.4 mph 19.6 mph N/A   Mostly Cloudy
2:25 AM 77.0 °F - 75.2 °F 94% 29.85 in 10.0 mi ESE 9.2 mph - N/A   Mostly Cloudy
2:54 AM 77.0 °F - 73.9 °F 90% 29.91 in 10.0 mi East 5.8 mph - N/A   Scattered Clouds
3:54 AM 75.0 °F - 73.0 °F 94% 29.92 in 10.0 mi SE 11.5 mph - N/A   Scattered Clouds
4:54 AM 75.9 °F - 73.9 °F 94% 29.91 in 10.0 mi East 4.6 mph - N/A   Partly Cloudy
5:54 AM 75.0 °F - 73.9 °F 96% 29.92 in 8.0 mi ESE 4.6 mph - 0.13 in Rain Light Rain
6:54 AM 77.0 °F - 75.9 °F 96% 29.94 in 10.0 mi ESE 5.8 mph - 0.00 in   Scattered Clouds
7:54 AM 80.1 °F 85.4 °F 75.9 °F 87% 29.95 in 10.0 mi ESE 5.8 mph - N/A   Clear
8:54 AM 81.0 °F 87.3 °F 75.9 °F 85% 29.94 in 10.0 mi ESE 9.2 mph - N/A   Scattered Clouds
9:54 AM 82.9 °F 90.8 °F 75.9 °F 79% 29.95 in 10.0 mi East 8.1 mph - N/A   Mostly Cloudy
10:07 AM 82.4 °F 89.5 °F 75.2 °F 79% 29.88 in 10.0 mi ESE 9.2 mph - N/A   Scattered Clouds
10:54 AM 82.9 °F 90.2 °F 75.0 °F 77% 29.94 in 10.0 mi SE 10.4 mph - N/A   Scattered Clouds
11:54 AM 82.9 °F 90.8 °F 75.9 °F 79% 29.94 in 10.0 mi ESE 6.9 mph - N/A   Scattered Clouds
12:54 PM 84.0 °F 91.9 °F 75.0 °F 74% 29.92 in 10.0 mi SE 8.1 mph - N/A   Scattered Clouds
1:54 PM 82.9 °F 90.8 °F 75.9 °F 79% 29.92 in 10.0 mi East 16.1 mph 19.6 mph N/A   Mostly Cloudy
2:09 PM 78.8 °F - 75.2 °F 89% 29.86 in 7.0 mi NE 9.2 mph - 0.00 in Rain Light Rain
2:54 PM 81.0 °F 87.9 °F 77.0 °F 88% 29.91 in 10.0 mi SE 9.2 mph 20.7 mph 0.09 in   Scattered Clouds
3:54 PM 82.0 °F 89.4 °F 75.9 °F 82% 29.89 in 10.0 mi SE 10.4 mph - N/A   Scattered Clouds
4:33 PM 82.4 °F 89.5 °F 75.2 °F 79% 29.82 in 10.0 mi ESE 10.4 mph - N/A   Mostly Cloudy
4:42 PM 82.4 °F 89.5 °F 75.2 °F 79% 29.83 in 10.0 mi East 15.0 mph - N/A   Scattered Clouds
4:54 PM 82.0 °F 89.4 °F 75.9 °F 82% 29.89 in 10.0 mi East 12.7 mph - N/A   Partly Cloudy
5:54 PM 81.0 °F 86.2 °F 73.9 °F 79% 29.90 in 10.0 mi East 9.2 mph - N/A   Clear
6:54 PM 80.1 °F 84.5 °F 73.9 °F 81% 29.93 in 10.0 mi East 5.8 mph - N/A   Clear
7:54 PM 79.0 °F - 75.0 °F 88% 29.94 in 10.0 mi East 5.8 mph - N/A   Partly Cloudy
8:54 PM 77.0 °F - 75.0 °F 94% 29.94 in 10.0 mi NE 5.8 mph - N/A   Clear
9:54 PM 78.1 °F - 75.0 °F 90% 29.95 in 10.0 mi East 4.6 mph - N/A   Partly Cloudy
10:54 PM 78.1 °F - 75.0 °F 90% 29.95 in 10.0 mi East 4.6 mph - N/A   Clear
11:54 PM 77.0 °F - 73.9 °F 90% 29.95 in 10.0 mi East 3.5 mph - N/A   Partly Cloudy